This demonstration page uses our WeatherBlox Daily Observations layout. Learn more.

39.01783, -85.05884

Hourly Observations for November 19, 2019

Temp ( °F °C ) Dew Point ( °F °C ) Humidity (%) Winds ( mph kmh ) Pressure ( in mb ) Visibility ( mi km ) Precip ( " mm )
12:52 am 00:52 Cloudy 38 3.3 35 1.7 89 89 Calm 29.79 1009 8 12.87472 0 0
1:52 am 01:52 Cloudy 38 3.3 35 1.7 89 89 SW 6 9 29.79 1009 7 11.26538 0 0
2:52 am 02:52 Cloudy 38 3.3 34 1.1 86 86 SW 5 7 29.8 1009 8 12.87472 0 0
3:25 am 03:25 Cloudy 37 2.8 34 1.1 89 89 SW 3 6 29.83 1010 8 12.87472 0 0
3:52 am 03:52 Cloudy 36 2.2 33 0.6 89 89 S 3 6 29.8 1009 7 11.26538 0 0
4:52 am 04:52 Cloudy with Mist and Fog 36 2.2 33 0.6 89 89 Calm 29.79 1009 5 8.0467 0 0
5:06 am 05:06 Cloudy with Mist and Fog 36 2.2 34 1.1 93 93 Calm 29.83 1010 5 8.0467 0 0
5:52 am 05:52 Mostly Cloudy 37 2.8 34 1.1 89 89 Calm 29.78 1009 7 11.26538 0 0
6:06 am 06:06 Mostly Cloudy 37 2.8 34 1.1 89 89 SE 3 6 29.82 1010 8 12.87472 0 0
6:52 am 06:52 Mostly Cloudy with Mist and Fog 35 1.7 33 0.6 93 93 SE 3 6 29.79 1009 6 9.65604 0 0
7:52 am 07:52 Partly Cloudy with Mist and Fog 36 2.2 32 0 86 86 ESE 5 7 29.8 1009 6 9.65604 0 0
8:52 am 08:52 Partly Cloudy 38 3.3 34 1.1 86 86 SSE 7 11 29.82 1010 7 11.26538 0 0
9:52 am 09:52 Mostly Sunny 42 5.6 35 1.7 76 76 SSE 7 11 29.81 1010 7 11.26538 0 0
10:52 am 10:52 Sunny 46 7.8 36 2.2 68 68 SE 6 9 29.81 1010 8 12.87472 0 0
11:52 am 11:52 Partly Cloudy 49 9.4 36 2.2 61 61 S 6 9 29.8 1009 9 14.48406 0 0
12:52 pm 12:52 Partly Cloudy 50 10 36 2.2 59 59 VRB 5 7 29.79 1009 10 16.0934 0 0
1:12 pm 13:12 Cloudy 51 10.6 37 2.8 59 59 Calm 29.8 1009 10 16.0934 0 0
1:52 pm 13:52 Cloudy 51 10.6 36 2.2 56 56 VRB 3 6 29.79 1009 10 16.0934 0 0
2:52 pm 14:52 Cloudy with Light Rain 50 10 39 3.9 66 66 WSW 5 7 29.8 1009 9 14.48406 0.001 0.001
3:52 pm 15:52 Cloudy with Light Rain 47 8.3 41 5 80 80 SW 3 6 29.82 1010 7 11.26538 0.01 0.254
4:52 pm 16:52 Cloudy with Mist and Fog 45 7.2 41 5 86 86 S 6 9 29.85 1011 6 9.65604 0.001 0.001
5:52 pm 17:52 Cloudy 45 7.2 40 4.4 83 83 SW 3 6 29.88 1012 8 12.87472 0.001 0.001
6:52 pm 18:52 Cloudy 44 6.7 40 4.4 85 85 SSW 5 7 29.9 1012 8 12.87472 0 0
7:52 pm 19:52 Cloudy with Mist and Fog 44 6.7 41 5 89 89 WSW 3 6 29.92 1013 6 9.65604 0 0
8:14 pm 20:14 Cloudy with Light Drizzle 44 6.7 41 5 89 89 SW 3 6 29.94 1014 5 8.0467 0.001 0.001
8:52 pm 20:52 Cloudy with Mist and Fog 44 6.7 41 5 89 89 WSW 5 7 29.94 1014 5 8.0467 0.001 0.001
9:52 pm 21:52 Cloudy with Mist and Fog 44 6.7 42 5.6 93 93 WNW 3 6 29.94 1014 5 8.0467 0 0
10:03 pm 22:03 Cloudy with Mist and Fog 44 6.7 42 5.6 93 93 W 3 6 29.96 1015 5 8.0467 0 0
10:52 pm 22:52 Cloudy with Mist and Fog 44 6.7 41 5 89 89 W 5 7 29.94 1014 5 8.0467 0 0
11:45 pm 23:45 Cloudy with Mist and Fog 43 6.1 41 5 93 93 W 5 7 29.97 1015 0.75 1.207005 0 0
11:52 pm 23:52 Cloudy with Mist and Fog 43 6.1 41 5 93 93 W 3 6 29.95 1014 0.75 1.207005 0 0

Powered by AerisWeather